RH
95 97 96 98 99 99 100 100 100 99 100 99 99 99 99 100 100 99 98 97 97 96 95 93 92 92 91 91 91 90 90 90 90 91 91 92 93 94 94 94 92 91 89 87 85 84 83 85 88 92 94 92 89 87 86 85 84 83 83 83 84 85 86 87 87 88 89 88 88 89 90 90 91 92 93 92 92 93 94 95 95 96 98 99 99 98
94 95 94 97 98 99 99 100 100 99 99 99 98 97 97 98 99 99 99 99 98 98 96 95 94 95 96 95 93 90 87 86 86 87 88 90 91 91 92 91 91 89 87 86 86 86 87 90 94 96 95 91 88 85 84 83 83 82 82 82 84 86 87 89 90 91 92 92 92 93 94 94 94 95 95 94 94 93 93 93 93 95 96 97 97 98
92 93 95 97 98 99 99 100 99 99 99 99 96 94 91 94 95 95 95 97 98 98 95 94 94 95 98 97 94 88 83 80 79 80 83 85 87 87 89 90 90 90 90 91 93 94 95 97 97 95 91 87 85 85 85 85 86 87 88 88 88 89 89 90 91 91 93 93 94 95 96 95 95 96 96 96 96 96 95 96 96 95 95 95 96 96
90 92 96 98 98 99 99 100 99 99 97 96 92 88 85 85 85 86 86 89 92 95 94 93 92 93 95 94 90 83 77 73 72 71 73 75 77 80 84 87 89 91 95 97 98 99 100 100 97 94 89 89 88 89 90 90 90 89 88 88 88 87 87 87 87 87 88 89 91 92 93 93 94 94 94 94 95 95 95 97 97 96 96 95 96 96
91 92 95 96 97 97 99 98 97 96 97 94 92 89 85 81 79 78 78 80 83 86 88 89 90 90 90 88 83 77 71 69 68 67 66 66 68 71 77 83 87 91 96 98 98 98 98 98 96 93 91 91 90 90 89 88 88 87 87 86 85 85 83 83 82 82 82 83 85 86 87 89 89 90 91 91 92 93 94 95 95 96 96 95 95 95
90 91 92 93 95 96 98 94 91 91 94 94 93 91 88 84 81 79 78 77 76 77 79 82 85 87 88 83 77 71 69 67 66 66 65 66 66 68 72 79 85 89 93 94 95 94 93 93 91 90 89 88 88 87 87 87 86 85 84 83 82 81 80 78 77 77 77 77 78 79 80 82 84 85 87 88 89 90 90 91 92 93 94 94 94 94
90 90 88 90 94 97 98 93 89 87 89 91 91 90 89 86 83 82 81 79 76 75 76 80 83 85 84 78 72 68 68 67 66 66 66 68 70 71 70 75 79 83 85 86 86 86 86 86 86 86 86 86 86 85 84 84 82 81 79 77 75 73 72 70 70 69 70 69 69 70 70 72 74 76 79 82 85 86 87 88 88 89 90 91 92 93
89 89 88 90 92 95 96 95 90 86 84 86 87 86 85 84 83 82 83 81 78 75 73 77 79 79 76 70 67 67 68 66 65 65 66 69 72 74 72 71 71 72 73 74 74 74 75 76 77 78 79 80 80 80 79 78 76 73 70 68 65 63 62 60 59 59 59 58 58 59 58 60 63 66 70 74 78 81 84 85 86 86 87 87 88 89
87 88 89 89 90 90 90 91 89 85 78 79 81 82 80 78 78 79 83 81 78 74 70 69 70 71 69 67 65 64 64 63 61 60 63 64 66 68 68 65 63 62 63 62 62 62 61 62 63 65 68 70 72 72 72 71 70 67 64 61 58 56 55 53 52 51 50 50 51 52 52 53 56 59 62 67 71 76 80 83 84 85 85 86 86 87
85 86 87 87 87 86 85 86 87 83 72 71 73 76 77 74 72 71 75 78 77 74 70 67 66 65 65 64 62 61 60 59 58 58 60 59 60 61 60 59 58 58 58 58 58 58 58 59 59 61 64 67 69 70 71 70 69 67 64 62 59 56 53 51 49 47 46 46 46 47 50 52 55 58 63 65 69 73 78 80 81 83 83 85 86 87
83 83 84 85 84 83 83 85 83 78 68 70 72 75 78 73 69 67 65 69 70 69 66 65 64 62 61 60 59 57 57 57 57 59 60 60 59 59 59 59 58 58 59 61 62 62 63 66 68 70 72 74 75 76 75 73 71 69 67 64 62 60 55 53 49 45 42 41 41 42 45 50 55 61 67 69 71 72 74 76 79 81 82 84 85 87
82 82 82 83 82 80 80 82 80 75 70 71 73 74 72 68 66 64 61 62 62 62 61 61 61 60 59 59 58 59 59 59 58 58 59 59 60 60 61 62 62 62 63 63 63 63 64 67 70 72 74 75 76 75 74 72 70 68 67 65 63 62 58 58 56 54 52 50 48 47 48 50 53 57 66 71 73 73 73 76 79 81 82 83 84 84
75 76 76 78 77 76 75 74 74 72 69 68 66 65 64 63 63 62 59 59 60 60 61 60 59 59 60 60 61 62 62 62 60 59 58 58 59 60 62 63 64 65 66 65 64 63 62 63 64 67 69 70 70 69 68 67 66 65 63 61 59 58 57 61 66 70 74 73 72 72 73 69 67 69 74 74 75 76 76 75 76 78 79 80 80 80
68 68 69 69 69 67 65 63 62 61 61 61 62 63 63 63 62 62 60 61 61 62 62 61 59 60 62 62 63 63 63 63 62 61 59 58 59 60 62 63 65 67 68 68 68 66 64 63 63 63 63 63 63 62 62 62 62 62 61 58 56 54 56 66 75 83 87 89 89 89 88 85 83 82 81 78 77 78 79 78 77 77 78 78 78 78
63 63 62 62 61 61 59 58 58 58 59 60 61 61 61 62 62 62 63 63 63 63 64 62 60 59 62 63 64 65 66 67 66 64 62 59 57 56 56 57 60 64 68 70 70 69 66 63 59 56 54 55 56 58 63 66 67 65 63 59 56 56 58 69 79 87 90 90 91 90 87 86 85 84 82 82 82 83 83 82 81 81 81 80 80 78
62 61 60 58 58 58 58 58 58 59 60 61 61 60 59 61 63 64 65 65 65 65 65 64 62 60 62 66 67 68 68 68 67 66 64 59 53 48 46 49 53 59 64 67 68 66 63 58 53 50 49 51 55 62 70 73 72 70 67 64 64 65 67 73 81 88 90 91 90 88 86 86 85 84 84 85 86 87 86 86 86 86 86 84 82 79
62 61 61 59 58 57 59 59 59 59 61 61 61 62 63 64 65 65 65 65 66 67 67 67 65 63 61 67 67 66 67 68 68 68 65 59 50 43 43 49 55 60 64 65 65 63 59 54 50 48 49 51 57 65 73 73 73 73 75 76 79 82 80 81 85 90 92 93 92 91 89 87 86 85 86 87 87 87 88 88 89 90 88 86 86 87
62 61 61 59 58 58 60 60 59 60 61 62 63 64 66 68 69 69 68 68 69 69 69 69 68 67 65 58 61 65 67 69 69 69 66 59 50 42 43 52 58 63 65 66 64 61 56 52 49 49 50 54 63 72 76 78 81 84 85 88 91 91 89 86 86 88 92 93 93 93 92 89 87 86 86 87 87 88 88 88 88 87 88 88 90 93
63 62 60 58 57 57 58 59 59 60 62 63 65 68 70 71 71 71 70 70 70 70 70 70 70 68 67 60 61 65 69 71 71 70 68 62 53 45 44 52 58 62 64 65 62 58 54 51 51 51 53 58 66 73 77 81 84 86 86 89 90 90 90 90 88 87 87 91 93 94 94 94 93 92 91 88 87 88 88 89 88 88 88 88 88 90
62 60 59 58 57 57 58 59 61 63 65 67 69 70 70 72 72 72 71 71 71 71 72 71 71 70 69 67 66 68 70 70 70 69 67 64 58 51 49 53 57 60 62 61 58 55 53 53 54 55 56 60 66 73 78 81 83 84 82 78 77 80 86 89 90 90 86 88 91 94 93 93 93 94 94 92 92 92 89 89 89 89 89 89 88 88
63 61 60 60 60 60 61 65 67 69 70 71 71 70 68 70 72 73 73 74 74 74 74 74 74 73 73 72 68 64 61 64 67 68 67 67 64 59 54 55 57 59 60 59 57 55 56 57 58 58 57 60 66 74 78 80 82 80 75 68 67 73 84 89 91 92 93 95 95 96 96 95 95 94 94 94 92 89 87 88 89 89 90 89 89 89
66 64 63 63 63 63 65 69 72 73 74 74 72 69 67 70 73 76 77 77 76 76 75 75 73 71 70 67 61 56 56 60 64 68 71 72 70 65 57 57 57 57 57 56 56 57 59 60 59 58 56 60 67 73 77 79 79 75 67 61 64 74 88 91 93 95 96 97 97 98 98 98 97 96 96 94 92 90 89 90 89 89 90 90 90 90
69 67 66 66 66 67 69 72 74 75 76 75 74 72 71 73 75 77 78 78 78 77 75 72 71 70 71 70 66 62 61 64 68 72 76 75 73 68 61 58 57 55 55 55 56 58 60 60 59 58 57 62 67 72 77 78 75 69 62 58 64 77 90 92 95 96 97 97 97 97 97 97 97 97 97 97 96 95 95 94 94 93 93 94 94 94
71 70 70 70 70 71 73 75 76 76 77 77 75 74 74 74 75 76 78 81 82 82 80 79 79 78 77 73 68 63 59 61 66 71 77 76 73 69 63 59 57 56 55 55 57 59 60 58 57 58 61 64 69 73 76 73 69 64 60 58 63 74 89 91 93 94 95 95 95 96 96 96 96 97 97 97 97 97 97 97 97 96 95 96 97 97
73 73 74 74 75 76 76 77 78 78 79 78 77 75 74 76 79 83 86 87 85 83 82 82 82 81 77 73 65 58 55 58 64 70 76 73 70 66 62 59 57 57 57 57 59 60 60 58 58 60 64 68 71 73 73 70 66 63 62 64 66 70 79 84 87 88 89 91 92 93 93 94 95 95 96 96 96 97 97 96 95 95 95 96 96 97
75 76 77 78 79 79 79 79 79 79 79 78 77 76 77 81 83 85 84 82 80 80 80 80 79 78 74 70 62 54 52 57 62 67 72 69 66 64 62 59 58 58 59 60 61 62 60 58 59 62 67 70 72 73 72 69 67 67 71 74 77 78 80 81 82 83 86 87 87 87 89 90 91 93 95 96 96 96 96 96 96 95 95 96 96 96
71 73 75 77 77 77 77 78 78 79 80 81 81 83 85 88 88 88 86 81 79 79 79 79 78 76 72 68 62 56 52 55 58 62 65 68 68 66 63 59 58 59 60 62 64 63 60 59 61 65 69 71 73 73 72 70 71 74 78 81 84 86 87 89 90 90 90 89 88 87 88 87 87 88 92 94 95 96 96 96 96 96 96 96 96 96
66 65 66 67 66 67 68 70 71 72 75 78 82 87 90 91 91 90 88 83 81 80 80 80 79 77 74 69 64 60 56 53 52 55 62 66 68 66 62 59 59 60 63 65 65 62 58 59 63 68 71 72 73 72 71 70 71 74 77 80 82 83 84 85 85 86 88 89 90 90 90 90 89 88 88 90 93 95 96 96 96 96 96 96 96 96
72 70 70 68 68 67 67 67 66 66 69 76 81 86 91 92 91 89 87 84 83 82 82 81 80 78 75 71 66 62 57 51 50 53 61 65 65 64 61 59 60 63 66 68 67 63 57 61 67 71 72 72 72 71 70 70 70 71 73 75 76 78 79 80 82 84 86 88 89 90 91 91 91 91 91 90 90 92 95 96 96 96 96 96 96 96
78 77 77 78 78 77 77 75 73 71 71 76 80 83 87 88 87 86 84 84 84 84 83 82 81 79 76 71 66 61 55 51 53 57 62 64 63 61 60 60 62 65 69 71 72 71 65 66 69 72 72 72 71 70 69 68 69 70 71 72 74 75 77 79 81 83 85 87 88 89 91 91 92 92 93 93 92 91 92 94 95 96 96 96 96 96
76 77 78 78 79 78 78 77 76 76 75 76 76 76 76 76 76 76 76 78 80 82 83 83 81 79 76 70 68 64 55 54 57 62 64 64 63 62 62 63 65 68 71 73 76 76 73 70 69 70 70 69 68 66 66 67 68 70 71 73 74 75 76 78 80 81 82 82 84 87 89 90 91 92 92 94 94 93 93 91 93 95 95 95 95 96
74 77 78 77 77 76 74 74 74 75 74 73 71 67 64 62 61 62 64 68 72 77 80 81 80 78 76 71 69 65 56 55 57 61 65 66 66 66 67 68 70 72 73 75 76 77 80 75 71 68 68 68 68 68 67 68 69 71 72 74 75 76 76 77 78 78 78 77 80 83 87 89 90 91 92 92 93 94 94 93 94 95 95 95 96 96
76 76 75 74 73 72 70 70 70 70 71 69 67 63 59 56 53 53 54 57 62 68 74 76 77 77 75 72 69 65 60 57 59 63 68 70 70 70 72 73 75 76 76 76 77 77 79 76 74 72 72 73 73 73 71 70 71 72 74 75 76 76 77 77 77 77 77 77 78 80 82 83 85 87 89 90 92 93 94 95 95 96 95 96 96 95
75 72 70 68 66 65 63 63 64 65 66 65 63 60 57 54 52 52 52 53 56 60 64 68 71 73 73 72 70 67 64 61 65 71 73 74 74 74 75 76 77 77 77 77 77 76 76 75 75 75 76 77 77 76 74 73 73 74 76 76 76 76 77 77 76 76 77 77 78 78 79 79 80 82 84 86 88 90 92 93 95 96 96 96 96 95
73 71 68 66 63 61 59 58 59 60 61 60 58 56 54 54 54 54 55 55 56 58 60 62 64 66 68 70 70 69 67 64 69 75 77 77 78 77 78 78 78 78 78 78 77 76 76 76 76 77 78 79 79 79 77 76 76 77 77 77 76 76 76 76 76 76 77 77 77 77 78 80 81 83 83 83 85 87 89 91 93 95 96 96 96 96
68 66 64 62 59 57 54 54 54 54 55 54 54 53 53 55 56 58 59 60 61 62 63 65 66 66 66 68 70 70 68 66 69 75 79 80 81 81 81 80 79 79 78 79 79 79 78 78 78 78 80 81 81 80 78 78 78 78 77 76 75 75 74 75 76 77 78 78 78 78 79 81 83 85 86 85 86 87 89 90 92 94 95 96 96 96
60 58 55 53 52 51 51 51 51 51 52 52 52 53 54 57 59 62 63 64 66 68 70 72 73 73 72 71 71 70 67 66 69 73 78 81 82 84 83 83 81 80 80 80 81 81 81 80 80 80 81 81 81 80 79 80 80 80 78 77 76 75 74 75 76 78 79 79 79 80 80 82 83 85 86 85 86 87 86 85 85 87 89 93 95 97
56 54 51 50 50 50 50 50 51 51 52 53 54 55 57 59 61 63 66 68 70 73 75 77 78 77 76 74 73 71 69 68 68 69 72 75 77 79 79 80 78 78 78 78 79 81 82 83 83 82 82 81 81 82 83 83 83 83 81 78 77 75 74 75 77 78 80 80 80 80 79 80 80 81 82 82 83 83 82 81 79 78 78 81 85 90
56 55 54 53 53 53 53 53 54 55 56 56 57 58 59 60 61 63 64 65 67 70 73 75 76 76 75 73 72 71 70 68 65 64 63 64 66 67 70 72 74 74 74 76 78 80 83 85 85 85 84 83 83 84 85 85 86 86 85 83 80 77 73 75 77 78 78 78 78 78 78 78 78 79 80 81 82 82 83 82 80 79 78 78 78 78
58 57 57 57 57 58 58 58 59 60 61 61 61 61 61 61 60 59 58 57 58 61 64 69 72 75 76 76 75 74 73 71 69 67 65 65 65 66 68 72 75 77 78 80 82 84 86 87 88 87 87 87 86 86 87 87 87 88 89 89 87 83 75 76 76 76 76 77 78 79 79 80 80 81 82 82 83 83 83 83 82 81 81 81 81 80
59 59 58 58 60 61 61 62 63 64 64 63 63 62 60 58 56 54 52 52 54 58 63 69 74 78 79 81 81 80 79 78 77 77 76 75 76 78 79 81 83 86 88 89 90 91 91 91 90 90 90 89 89 88 88 88 88 89 92 92 90 86 81 78 77 76 76 77 79 80 81 81 82 82 82 83 83 83 82 82 82 82 82 82 83 83
62 60 58 59 61 62 64 65 65 65 65 65 63 60 54 51 49 50 53 58 62 66 71 75 77 79 79 80 80 80 80 81 81 82 82 83 84 86 87 89 91 92 93 93 93 93 92 92 92 92 91 90 90 90 90 89 89 90 90 91 90 89 87 80 76 74 78 78 79 80 80 80 80 80 81 81 81 81 82 82 82 82 82 82 83 83
68 63 59 59 61 64 66 65 65 64 63 60 56 51 46 47 51 56 63 68 71 74 76 77 78 78 78 79 78 77 75 76 77 80 83 86 87 89 89 91 92 93 93 93 93 93 92 93 93 93 92 91 91 91 91 90 90 90 90 90 90 90 90 82 76 74 77 79 79 79 79 80 80 80 80 81 81 82 82 83 83 83 83 83 83 82
74 69 63 61 61 62 63 62 59 57 54 51 48 47 47 53 60 66 71 74 76 77 78 78 79 79 80 82 82 82 82 77 78 81 85 87 89 90 90 91 93 94 94 93 93 93 93 93 92 92 92 91 91 91 91 90 90 90 90 91 91 91 90 85 81 80 80 79 79 80 80 80 81 81 82 82 82 83 83 83 84 84 84 84 84 83
77 72 67 64 62 61 59 56 53 51 50 50 51 53 55 62 67 72 75 76 77 78 79 79 80 82 84 85 86 87 89 87 86 86 87 89 90 91 91 92 93 93 94 93 93 93 93 93 93 92 92 92 91 91 91 90 90 90 91 91 91 90 88 85 84 83 82 81 80 80 80 81 81 82 83 83 83 83 83 84 84 84 84 85 85 84
76 73 69 67 64 62 59 56 54 54 55 56 57 59 61 66 70 74 75 76 78 79 80 81 82 84 86 87 87 87 88 88 88 87 87 87 89 91 93 93 93 93 93 93 93 93 93 93 93 93 92 92 92 91 91 91 91 91 91 91 91 90 89 87 84 82 81 82 81 81 80 81 82 83 83 83 83 83 83 83 84 85 85 85 85 84
76 73 71 69 67 65 62 60 59 60 61 61 62 62 64 68 71 74 76 77 78 79 80 82 84 86 88 88 88 88 88 88 88 88 87 86 86 88 89 90 91 92 93 93 93 93 93 93 93 93 93 93 93 92 93 93 92 92 92 91 91 90 90 87 84 81 80 81 82 81 81 82 82 83 83 84 84 84 84 85 85 85 85 85 85 84
76 74 72 70 69 67 64 62 62 63 64 64 65 65 66 69 72 74 76 77 78 80 82 83 85 87 88 88 88 88 88 89 89 90 89 87 87 87 89 88 89 91 91 92 93 93 93 94 94 94 94 94 93 93 94 94 93 92 92 92 92 92 91 87 83 80 80 81 81 81 81 82 82 82 83 83 84 84 84 85 86 86 86 85 85 84
76 74 72 70 69 67 65 64 64 64 65 66 66 66 66 67 70 73 74 76 78 81 83 84 86 87 87 87 87 87 88 88 89 89 88 88 88 88 89 89 91 91 92 93 94 94 94 94 94 94 94 94 94 94 94 94 93 93 92 92 92 93 92 88 84 80 80 81 81 81 81 80 80 80 81 82 83 83 83 84 85 86 86 86 86 85
78 75 72 70 69 68 66 65 65 65 66 66 65 65 64 65 66 68 71 73 76 79 82 84 86 87 87 87 86 86 86 87 87 86 86 87 88 88 89 89 89 90 92 93 93 93 92 92 92 92 93 93 93 94 94 94 93 93 93 93 92 91 91 88 84 81 80 81 81 80 79 78 78 78 79 81 82 83 82 83 83 83 84 84 84 84
79 77 74 72 70 69 67 66 66 66 66 66 65 64 64 63 64 64 66 68 71 75 78 81 84 86 87 87 86 86 86 86 86 86 85 86 87 88 89 89 89 88 89 90 89 88 87 86 86 86 85 85 86 88 89 90 91 92 94 91 89 88 89 87 84 81 80 81 81 80 79 78 77 78 79 81 82 82 81 81 81 81 81 82 81 81
Wind_Speed
1 2 3 3 2 1 1 2 2 0 0 1 2 3 3 3 3 3 3 4 4 5 5 5 5 5 5 4 5 5 5 5 6 6 7 7 7 7 7 7 8 8 8 8 8 7 7 6 6 6 7 7 7 7 7 6 6 5 5 4 4 3 3 3 3 3 4 4 4 4 5 5 5 6 7 8 8 8 9 9 9 10 9 9 9 9
2 3 4 3 1 1 1 2 2 2 2 2 3 3 2 0 1 1 1 2 3 3 4 4 5 5 5 5 5 6 6 6 6 6 6 6 6 6 6 7 7 7 6 6 6 5 4 4 4 5 5 5 4 3 3 2 2 2 1 1 1 1 1 2 2 3 3 3 4 4 4 4 4 5 5 5 6 6 7 8 9 9 9 9 9 8
0 2 3 3 1 1 2 2 3 3 3 3 2 1 1 0 1 2 2 2 2 3 1 0 1 2 3 4 5 6 7 6 6 5 4 4 4 5 5 5 5 5 4 4 3 3 3 3 3 3 3 2 2 2 2 2 2 2 2 2 2 2 2 2 3 3 3 3 3 4 4 4 4 4 5 5 5 5 5 6 7 7 8 8 8 8
2 1 1 2 1 1 3 3 3 3 2 2 3 5 5 3 2 0 1 3 4 5 5 4 3 3 4 4 5 6 6 5 5 4 4 3 3 4 4 4 4 3 2 2 2 2 2 3 3 3 2 2 2 2 2 2 2 2 2 2 2 2 2 3 3 3 3 4 4 4 4 4 5 5 5 5 5 5 5 5 5 5 6 6 7 7
4 3 1 0 0 2 3 3 2 2 2 3 4 5 6 5 5 5 4 2 2 3 4 5 5 4 4 3 4 5 5 5 5 5 4 4 4 3 3 3 3 3 2 2 2 1 1 1 1 1 1 1 1 1 1 1 1 1 2 2 3 3 3 4 4 4 4 5 5 5 5 5 5 6 6 6 6 6 6 6 5 5 5 5 6 6
4 3 2 1 1 2 3 2 2 2 2 2 3 3 4 5 5 6 6 5 4 3 3 3 3 2 2 2 4 4 5 5 5 5 5 5 4 4 4 3 3 3 2 2 1 1 0 0 0 0 1 1 1 1 2 2 3 4 4 5 5 5 5 5 6 6 6 6 6 6 6 7 7 7 6 6 6 6 6 6 6 6 6 5 6 6
3 2 2 1 1 2 2 2 3 3 2 1 0 1 2 3 4 4 4 5 5 5 5 5 4 2 1 3 4 5 5 5 5 5 5 5 5 4 3 3 2 1 1 0 0 1 1 2 2 3 3 3 4 4 4 5 6 7 7 8 8 8 8 8 8 8 8 8 8 8 8 8 8 8 8 7 7 7 7 7 7 7 7 7 7 6
2 1 0 1 1 1 1 2 2 2 1 1 2 2 2 2 2 2 2 3 3 4 4 4 4 3 2 2 3 3 3 4 4 4 4 4 4 3 3 3 3 2 3 3 3 4 5 5 6 6 6 6 7 7 7 8 9 10 11 11 12 12 12 12 12 12 12 11 11 11 11 10 10 10 9 9 8 8 8 7 8 7 7 7 7 7
3 2 2 2 2 2 1 1 2 2 2 0 2 2 1 1 1 1 0 0 1 1 2 3 3 3 2 1 1 1 3 3 3 3 3 3 3 4 5 6 6 6 6 6 7 7 8 8 8 8 8 9 9 9 9 10 11 12 13 14 14 14 14 15 15 15 14 14 14 14 13 13 12 11 11 10 9 9 8 8 8 8 8 8 8 8
3 3 3 3 3 3 3 2 2 3 2 1 1 1 1 1 0 1 2 2 1 1 1 1 2 2 2 2 3 4 5 5 5 4 4 4 5 6 7 8 8 8 8 8 8 8 8 9 9 9 9 9 9 10 10 11 12 12 13 14 14 15 15 16 16 16 16 16 15 15 14 14 13 12 12 11 10 10 9 9 9 9 9 9 9 9
3 3 3 3 3 3 3 3 2 2 2 2 2 1 0 1 0 1 1 2 2 1 1 1 2 3 4 5 6 7 7 7 6 5 5 5 6 7 8 8 8 8 7 7 7 7 8 8 8 8 8 8 9 9 10 11 11 12 12 13 13 14 14 15 15 15 15 15 15 14 14 13 13 12 11 11 11 10 10 10 9 9 9 10 10 10
4 4 4 4 3 3 3 2 1 1 1 1 1 2 2 0 1 1 1 2 2 2 2 3 4 5 7 8 8 9 9 8 6 5 4 5 5 6 7 7 7 7 7 7 7 7 7 7 7 7 7 8 9 9 10 11 12 12 12 13 13 13 13 13 13 12 12 12 12 12 12 11 11 11 11 10 10 10 10 10 10 10 10 10 10 11
4 4 4 4 4 3 3 3 3 2 1 1 1 2 3 2 1 1 2 3 4 4 4 4 5 6 7 8 8 9 8 8 7 6 5 4 4 4 5 6 7 8 8 9 9 9 8 8 8 8 8 9 10 11 11 12 12 13 13 14 14 14 13 12 10 10 9 9 9 9 9 9 9 9 9 9 9 9 9 9 10 10 10 10 11 11
3 3 3 4 4 4 3 3 2 2 2 2 1 1 1 1 2 1 2 2 3 4 5 5 5 5 6 7 8 8 8 7 7 6 6 5 5 5 6 7 8 9 10 10 10 10 10 10 10 10 11 12 12 12 12 13 13 14 14 15 15 14 12 10 9 8 8 8 8 8 7 7 7 7 8 8 8 8 8 9 9 9 10 10 10 11
3 3 2 3 4 4 3 3 2 2 1 1 1 1 1 1 2 2 2 3 3 4 5 5 5 4 5 5 6 7 7 6 6 6 6 7 7 7 8 9 9 9 10 10 11 11 11 12 12 12 12 13 12 12 11 12 13 14 15 15 15 13 11 9 8 8 8 8 8 7 7 7 7 7 7 7 8 8 8 8 8 9 9 9 10 10
3 2 1 1 2 3 4 3 2 1 0 1 2 3 3 3 3 3 3 4 4 5 5 6 5 4 3 4 5 5 5 6 7 7 9 10 10 10 10 10 9 10 10 11 12 12 13 13 13 13 12 12 11 10 9 11 12 13 14 14 13 11 10 9 9 9 9 9 8 8 7 7 7 7 7 8 8 8 8 8 8 8 8 9 9 10
2 2 1 1 1 3 3 3 3 2 1 1 2 2 2 2 3 3 4 4 5 5 4 4 4 3 3 3 4 5 6 7 8 10 11 13 13 12 10 9 9 9 10 11 12 13 13 13 12 12 11 11 10 10 10 11 12 13 12 12 11 10 9 9 9 9 9 9 9 8 8 8 8 8 8 8 8 8 8 8 8 8 8 9 9 9
2 2 1 1 1 1 2 3 3 3 2 2 1 1 1 1 2 3 3 4 4 3 3 3 3 3 4 3 4 6 8 9 10 11 12 14 14 12 9 7 7 9 10 11 12 13 13 13 12 12 11 11 10 10 10 11 11 11 11 11 11 10 10 9 9 9 9 9 9 9 9 8 8 8 9 9 9 9 9 9 9 9 9 9 9 9
2 2 2 2 1 1 2 2 3 3 3 3 3 2 1 0 1 2 2 2 3 3 3 3 3 4 6 6 7 7 9 10 10 11 12 13 14 13 9 7 7 8 10 11 12 12 12 12 11 11 11 11 10 10 10 10 10 10 10 11 11 11 11 10 9 9 9 9 9 10 10 9 9 9 9 9 9 9 9 9 9 9 9 9 9 10
2 2 2 2 2 2 2 2 3 4 4 4 4 3 2 1 1 1 1 2 2 2 3 4 4 5 6 7 8 8 9 10 11 12 11 12 13 12 9 7 7 8 9 11 12 12 11 11 11 11 11 11 10 10 10 10 10 11 11 12 12 12 11 10 9 8 8 8 9 9 10 10 10 10 10 10 10 10 10 10 10 10 10 10 10 10
1 1 2 3 3 2 2 2 3 4 5 5 5 4 3 3 2 2 2 2 3 3 3 4 5 6 7 9 11 11 11 12 13 12 10 10 11 11 9 7 7 8 10 11 11 11 11 11 11 11 12 11 10 10 9 10 10 11 12 13 12 11 10 8 8 7 8 8 8 9 9 9 9 10 10 10 10 10 10 11 11 11 11 11 11 11
1 1 1 2 3 3 2 2 2 3 4 5 5 4 3 3 3 3 4 4 5 5 6 7 8 9 10 12 12 11 9 10 12 11 8 8 10 11 9 8 7 9 10 11 11 11 11 11 12 12 12 11 10 9 9 9 10 11 12 12 11 10 9 7 7 7 7 7 7 8 8 8 8 9 9 9 10 10 10 11 11 11 11 11 11 11
1 1 1 2 3 3 3 2 2 3 3 4 4 4 4 4 4 4 5 6 7 8 9 10 10 10 10 10 10 9 8 7 9 9 7 6 7 9 9 8 8 9 10 10 11 11 11 12 13 13 12 10 8 8 8 9 10 11 11 11 10 9 7 6 7 7 7 7 7 7 7 7 7 8 8 8 9 9 10 10 10 11 11 11 11 11
2 2 2 3 4 4 4 3 3 3 3 3 4 4 5 5 5 5 6 7 7 8 9 9 10 10 10 10 10 10 8 7 7 8 7 6 7 8 9 9 9 10 10 10 10 11 12 13 14 12 10 7 6 7 8 9 9 10 10 10 9 8 7 6 7 7 8 8 8 8 8 8 8 8 8 8 9 9 9 9 10 10 10 10 10 11
3 3 3 3 4 5 5 4 4 4 4 4 4 5 5 4 4 4 5 6 6 7 8 9 10 11 11 10 10 10 8 7 6 7 8 5 6 8 9 9 10 10 10 10 10 11 13 14 13 10 7 5 5 6 7 8 9 10 10 10 9 8 7 7 7 8 8 9 9 9 10 10 10 10 10 10 10 9 9 9 9 10 10 10 10 10
5 4 4 4 4 5 5 5 5 5 6 6 6 5 5 4 4 5 6 6 6 6 8 9 10 9 9 9 8 8 7 7 6 6 7 6 6 7 9 9 9 9 10 10 11 13 14 14 12 8 4 3 3 5 7 8 9 10 10 10 10 9 9 9 9 9 10 10 10 11 11 11 11 11 11 11 11 11 11 10 10 10 10 11 11 11
6 6 5 5 6 6 6 6 6 6 6 6 6 5 5 5 6 7 8 7 7 6 8 8 8 8 8 7 7 7 8 8 8 7 7 7 6 6 8 9 9 9 10 11 12 14 14 13 9 5 2 1 2 4 7 8 9 10 10 10 10 10 10 10 10 11 11 11 11 12 12 12 12 12 12 12 12 12 12 12 11 11 11 11 12 12
4 5 6 6 6 6 6 7 7 7 6 6 5 5 6 6 7 8 9 8 7 7 8 8 7 7 6 6 7 9 10 10 9 8 7 6 5 5 7 8 9 9 10 12 14 15 13 9 6 4 2 2 3 5 7 8 9 9 9 9 9 10 10 10 10 10 11 11 11 12 12 12 12 12 12 12 12 12 13 12 12 12 12 13 13 14
3 3 3 4 4 5 5 6 6 6 6 6 6 6 7 8 9 10 10 10 9 8 9 9 9 8 7 8 9 10 11 10 8 7 6 5 5 6 8 7 7 8 10 11 12 11 9 5 3 2 1 2 3 5 7 9 10 10 10 10 10 10 10 10 10 10 10 11 11 12 12 12 12 12 12 12 12 12 13 13 13 13 13 13 14 14
3 3 3 4 4 5 5 6 6 6 6 6 6 7 8 9 10 11 11 11 10 10 10 11 10 9 8 8 8 8 8 6 4 4 5 5 5 6 7 7 7 8 9 9 8 6 5 3 2 2 1 2 4 7 9 11 12 12 11 11 11 10 10 10 10 10 10 11 11 12 12 12 12 12 12 12 12 12 12 13 13 13 14 14 15 15
3 3 3 4 5 6 6 7 8 8 8 8 8 8 9 10 11 12 12 12 12 12 12 12 11 10 9 7 4 3 4 2 2 3 5 5 5 6 7 6 6 7 8 7 6 4 3 2 1 2 2 5 8 11 13 13 13 12 11 11 11 11 11 10 10 11 11 12 12 11 11 11 12 12 12 12 12 12 12 12 12 13 14 15 16 17
3 4 5 5 6 7 7 8 8 9 10 10 11 11 11 11 12 12 12 12 12 12 13 13 12 12 11 9 7 5 5 4 5 6 7 6 6 6 7 6 6 7 7 6 4 3 2 3 4 5 9 11 13 15 15 14 13 11 10 10 10 10 11 11 12 13 13 13 12 11 10 10 10 11 11 11 11 11 11 11 12 13 14 15 17 18
5 6 7 8 8 9 9 9 10 10 11 12 12 12 12 11 11 11 11 11 12 12 13 13 13 13 13 13 12 12 11 10 9 9 8 7 6 6 6 6 6 6 6 6 5 5 5 6 8 11 14 14 15 15 15 13 11 10 9 9 10 11 11 12 13 14 14 14 13 12 10 9 9 9 9 10 10 10 11 11 11 12 13 15 16 17
7 8 9 9 10 10 10 11 11 11 11 11 12 12 12 11 11 11 11 11 12 12 13 14 14 14 14 13 13 13 13 10 8 8 8 7 6 6 7 6 6 6 6 6 6 6 7 9 10 12 14 15 15 15 14 12 10 8 8 9 10 11 12 13 14 14 14 14 13 12 10 9 8 8 8 8 9 9 10 10 10 11 12 13 15 16
8 9 9 10 10 10 10 10 10 10 11 11 11 11 11 11 11 11 11 11 11 12 12 13 14 15 15 14 13 13 13 10 7 7 7 7 6 7 7 7 6 6 6 6 6 6 7 9 11 12 13 14 14 14 13 12 10 9 9 10 11 12 13 13 14 14 14 13 12 11 10 9 8 8 8 8 9 9 9 10 10 10 11 12 13 14
9 9 10 10 10 10 10 10 10 10 10 10 10 10 10 11 11 11 11 11 11 11 11 12 12 13 14 15 15 15 15 13 11 9 9 8 8 8 7 7 7 7 7 7 7 8 8 10 12 12 12 12 12 12 13 12 11 11 11 12 12 12 12 12 12 12 12 12 11 11 10 9 9 9 10 10 10 10 10 10 10 11 11 12 12 13
9 10 10 10 10 10 10 9 9 9 9 10 10 10 10 10 11 11 11 11 11 11 11 11 12 12 12 14 15 16 17 16 15 14 13 12 12 11 10 9 10 10 10 9 10 10 10 11 12 12 12 11 10 11 12 13 14 14 15 14 13 13 12 10 10 10 11 12 11 11 11 11 11 11 12 12 12 12 11 11 10 10 11 11 12 13
9 10 10 9 9 9 9 9 9 9 9 9 10 10 10 10 10 11 11 11 11 11 12 12 13 13 13 14 15 16 17 17 18 18 18 17 17 16 15 15 15 15 14 13 13 12 11 11 10 10 10 11 11 12 13 14 15 16 17 16 14 13 12 10 10 10 11 11 12 12 12 12 12 12 12 12 12 12 12 12 11 11 11 11 11 12
9 9 9 8 8 8 8 8 9 9 9 9 10 10 11 11 12 12 12 12 13 13 13 14 14 14 14 14 15 15 16 17 18 18 19 19 19 19 20 19 19 19 18 17 15 14 13 12 11 10 10 11 12 13 13 13 14 16 17 18 17 15 12 11 11 11 11 11 11 11 11 10 10 10 11 11 11 12 13 13 13 13 12 12 12 12
9 9 9 8 8 8 8 8 9 9 9 10 11 12 12 13 13 14 14 14 14 14 14 14 14 15 15 15 14 15 15 15 15 16 16 17 18 18 19 19 19 19 18 17 16 14 13 13 13 13 12 12 12 13 13 13 13 14 15 16 16 15 15 13 12 11 10 10 10 11 11 10 10 10 11 11 12 12 13 14 14 14 14 14 14 14
9 9 9 8 8 8 8 9 9 10 11 12 12 13 14 14 15 15 15 14 13 12 12 12 13 14 14 14 15 15 15 15 15 15 15 15 15 15 15 16 16 16 16 15 14 13 13 13 13 14 13 13 13 13 14 14 13 13 12 13 15 17 18 16 13 12 11 10 10 11 11 12 12 12 12 13 13 13 14 14 15 15 15 15 15 15
9 10 10 9 9 9 9 10 11 11 12 13 13 14 15 15 15 14 13 12 11 10 10 10 11 13 14 14 15 15 15 15 15 15 15 14 14 14 14 14 13 13 13 13 13 13 13 13 13 13 14 13 13 13 14 15 14 13 12 13 15 17 18 16 13 12 12 12 12 12 12 13 14 14 14 14 14 14 14 15 15 16 16 16 16 16
11 11 10 10 10 11 11 12 13 13 14 14 15 15 15 14 13 12 11 11 10 10 9 10 11 12 13 14 15 16 16 15 14 14 13 13 13 13 13 12 12 11 12 12 13 13 13 13 13 14 14 14 13 14 14 15 15 14 13 13 14 14 14 15 15 14 14 14 14 14 14 14 15 15 15 15 15 15 15 15 15 16 16 16 17 17
12 12 11 11 12 13 13 14 14 15 15 15 15 14 13 11 10 10 10 11 11 10 10 11 11 12 13 14 15 15 15 13 11 11 11 11 11 11 11 11 10 10 11 12 12 12 12 12 13 13 13 13 14 14 15 16 16 16 15 15 14 15 15 17 18 18 17 17 16 15 15 15 16 16 16 16 16 16 16 16 16 17 17 17 17 17
13 12 12 12 12 13 14 14 14 14 14 13 13 12 10 9 8 9 10 11 12 12 12 11 11 11 11 12 12 12 12 11 10 9 9 9 10 10 10 10 9 9 10 11 12 12 12 12 12 12 12 12 14 15 15 16 16 17 17 16 16 16 18 19 19 19 19 18 17 16 16 15 16 17 17 17 17 17 17 17 17 17 17 17 16 17
13 13 12 12 13 13 14 13 12 12 12 11 11 10 9 8 9 10 11 12 12 12 12 12 11 11 11 11 11 11 11 10 10 9 8 8 9 10 11 11 10 10 11 11 12 12 13 13 13 13 13 13 14 15 16 16 17 18 18 18 18 18 19 20 20 19 19 18 18 17 16 15 16 16 17 18 18 18 18 18 17 17 17 16 16 16
14 13 13 13 13 14 13 12 12 11 11 11 10 10 9 9 9 10 11 12 13 13 13 12 12 12 12 12 12 11 11 11 11 10 8 8 9 10 11 12 12 12 12 12 13 13 14 14 14 14 14 14 15 16 16 16 17 18 20 20 20 20 21 22 21 20 18 17 17 16 15 15 16 16 17 18 18 19 19 18 18 17 17 16 16 16
14 14 14 14 14 14 13 13 12 11 11 11 11 10 10 9 10 11 12 12 13 13 13 12 12 13 13 13 13 12 12 11 11 11 10 9 9 9 10 11 12 12 13 13 14 14 15 15 16 16 16 16 16 16 17 17 18 19 20 20 21 21 22 23 22 20 18 17 16 15 15 15 15 16 17 17 18 19 19 19 18 18 17 17 17 17
14 14 14 14 14 14 14 13 13 12 12 12 12 12 11 10 10 11 12 12 13 13 13 13 13 13 13 13 13 13 13 13 12 12 11 10 9 9 10 10 11 12 13 13 14 15 16 17 18 18 19 19 19 19 20 20 20 20 20 21 21 21 22 22 22 20 18 17 15 14 14 14 15 15 16 17 18 19 20 20 20 19 18 17 17 17
15 15 15 15 15 15 15 14 14 14 14 14 14 13 13 12 12 12 12 12 13 13 14 14 14 14 14 14 14 14 14 14 13 13 12 11 10 10 10 10 10 11 12 12 13 14 14 16 17 19 20 21 21 22 22 22 22 22 21 21 22 22 22 22 21 20 18 17 16 15 14 15 15 15 15 16 18 19 20 21 21 20 19 18 17 17
16 16 16 16 16 16 16 15 15 15 15 15 15 14 14 13 13 13 13 13 13 14 14 15 15 15 15 14 14 14 14 14 14 14 14 13 11 11 11 10 11 11 11 11 11 11 11 11 12 15 18 19 20 20 22 23 23 22 21 22 22 21 21 22 21 20 18 17 16 15 15 15 16 15 15 16 17 18 20 21 22 21 20 18 18 18
Wind_Direction
252 292 301 298 287 282 319 315 311 305 140 317 321 330 349 1 5 16 46 59 54 43 34 23 8 352 335 328 327 327 322 315 309 307 307 310 311 310 309 308 308 309 310 310 311 311 310 307 303 300 299 300 300 299 297 293 288 283 278 275 274 274 275 285 291 295 300 298 297 298 296 296 298 301 301 294 285 277 270 258 249 247 253 261 268 271
296 309 315 311 277 202 250 285 288 275 235 239 261 280 301 314 303 311 346 58 65 51 28 14 2 350 335 327 331 336 337 333 328 323 318 313 309 307 306 305 305 306 309 311 314 315 313 307 302 301 304 308 312 315 317 318 319 321 325 332 344 350 350 344 337 332 329 323 320 318 314 309 309 313 314 312 308 303 296 283 270 263 262 263 266 269
222 319 327 332 323 186 215 251 273 279 285 278 290 330 24 154 209 229 229 200 155 141 131 42 350 328 306 310 324 336 340 341 341 337 332 325 319 316 314 311 309 310 314 319 324 326 323 316 314 319 332 354 16 30 37 43 45 43 37 34 23 12 359 349 340 333 326 322 320 319 319 316 315 315 316 314 311 308 303 297 284 271 267 267 270 271
156 144 355 346 339 241 240 255 271 287 312 354 32 48 52 50 44 59 195 194 184 179 178 175 181 211 250 286 319 339 349 357 3 6 2 355 348 343 339 333 331 332 338 339 338 336 329 323 330 345 14 40 52 53 50 45 39 27 11 355 345 337 329 323 318 315 310 309 310 310 311 311 312 312 311 311 308 303 300 302 295 283 273 269 270 272
159 171 202 278 289 266 273 289 308 338 16 41 47 46 41 37 40 50 71 102 152 179 184 183 186 204 240 287 329 354 9 21 29 30 25 22 19 20 19 11 9 12 17 13 8 0 349 340 350 13 42 54 57 44 17 351 334 320 313 307 303 302 302 303 302 302 303 303 304 306 308 306 306 307 307 305 303 301 300 302 303 299 288 275 270 270
166 195 247 239 218 248 288 343 26 51 56 50 37 25 17 18 27 42 60 73 84 96 116 138 157 185 259 331 359 14 23 30 32 30 25 22 24 31 39 42 41 43 45 50 55 57 60 77 166 179 201 227 258 279 290 292 291 289 288 288 286 287 290 291 290 292 295 296 297 299 300 301 302 302 302 302 300 299 298 298 298 299 298 292 285 279
171 221 284 273 234 255 303 16 47 69 94 96 306 309 326 348 6 25 45 57 66 73 80 86 94 93 16 6 14 20 23 22 21 19 15 13 16 23 32 39 47 54 60 85 179 221 243 244 244 246 252 258 267 275 282 285 285 284 285 284 285 285 286 287 287 289 290 290 291 291 291 292 293 293 294 295 296 296 296 294 292 291 291 292 293 293
158 190 1 114 169 243 297 355 21 39 81 167 195 220 255 301 332 0 22 40 55 69 80 88 97 100 78 40 31 26 15 9 7 6 1 0 358 352 345 339 330 316 300 291 283 280 278 276 275 275 275 277 279 281 284 285 285 286 286 287 288 289 290 289 289 289 289 289 288 288 288 287 287 286 286 286 286 288 289 290 288 286 284 282 283 286
156 163 158 162 180 206 231 265 316 339 349 254 182 173 172 232 264 260 274 1 53 68 96 124 134 136 133 109 43 341 324 328 331 329 320 311 304 304 308 311 311 308 304 301 299 298 297 296 295 293 291 289 288 288 289 289 289 289 290 291 291 292 292 291 290 290 289 289 289 288 288 287 285 284 282 280 279 279 280 281 282 282 280 278 277 278
179 181 181 183 187 193 204 215 273 315 354 14 125 138 122 103 148 171 173 169 155 82 53 152 171 183 207 248 276 291 302 310 314 312 304 296 294 296 302 305 307 307 307 307 307 309 310 310 309 307 303 300 297 295 295 295 295 295 295 295 295 294 294 293 292 291 290 289 288 287 287 286 284 283 281 278 276 274 273 273 275 277 275 275 274 273
183 192 191 193 192 189 189 197 244 309 18 49 78 103 136 252 244 144 113 115 110 93 33 332 295 283 285 289 293 298 303 307 310 310 306 305 306 308 311 312 311 310 310 309 310 312 314 314 314 312 309 305 301 300 300 300 299 299 299 299 299 299 299 298 296 294 292 290 288 286 284 282 281 280 279 277 275 273 271 269 270 271 271 271 270 270
182 186 191 196 199 193 183 192 218 309 21 31 122 145 143 190 279 292 2 21 20 6 339 326 317 310 305 303 302 303 304 304 301 297 296 302 311 318 320 317 313 309 304 299 297 298 301 303 305 306 303 297 295 297 300 299 299 299 299 301 302 304 305 305 304 302 299 296 293 289 286 283 280 279 279 278 275 273 270 268 267 268 268 269 268 267
176 179 186 194 194 188 181 193 205 212 201 203 129 98 83 53 358 318 320 335 338 335 328 325 322 316 307 304 301 300 301 301 299 294 287 287 296 308 311 306 300 296 292 289 288 288 288 288 288 289 288 287 288 291 294 294 293 294 296 299 302 305 306 308 308 307 306 304 301 298 294 290 287 284 283 281 279 276 273 270 268 268 268 267 266 265
162 171 187 194 190 181 175 184 185 171 151 146 126 97 71 32 2 332 308 314 325 328 326 324 325 318 298 294 295 296 297 299 300 297 291 285 285 289 291 293 294 293 291 290 288 288 289 288 286 284 284 285 286 289 291 290 290 292 295 299 302 304 305 305 305 305 305 305 303 300 297 294 291 289 287 284 282 280 278 275 272 270 268 267 267 266
153 166 191 199 191 179 173 173 160 135 130 167 247 269 286 308 314 309 308 313 318 320 321 317 318 312 290 288 293 297 300 302 303 302 298 295 295 295 294 292 292 292 291 289 288 289 292 294 294 292 291 289 289 291 293 292 292 294 298 302 305 306 304 302 301 302 302 302 301 299 296 293 291 288 286 284 283 282 279 277 276 274 273 271 270 268
155 165 192 214 190 179 178 180 175 165 188 285 291 291 289 293 298 303 310 314 316 321 329 330 326 317 297 292 297 303 307 310 311 310 309 305 306 307 306 299 295 291 289 288 289 292 296 300 302 302 299 295 293 294 294 293 295 298 302 306 308 308 306 302 299 300 300 299 298 295 292 291 289 287 284 283 282 281 279 277 275 275 274 273 271 269
159 169 198 265 191 171 179 191 202 216 247 278 291 293 292 298 304 307 309 310 314 323 333 335 334 328 315 309 310 313 316 319 318 317 315 313 314 317 317 309 301 296 293 291 292 296 302 307 310 309 306 302 299 296 295 295 298 302 305 308 309 308 305 300 298 297 297 297 295 292 288 287 286 285 283 281 280 279 277 276 273 272 270 266 265 265
172 189 220 261 227 167 175 191 206 217 221 219 213 217 255 307 319 320 319 316 314 315 319 320 318 311 303 309 314 317 320 324 324 322 319 317 318 322 325 315 302 297 294 293 295 300 307 312 314 314 312 309 306 302 300 301 303 306 307 308 309 308 305 300 296 294 294 293 292 290 286 283 281 280 279 279 278 277 276 275 273 271 270 266 264 263
184 203 221 239 232 191 180 187 194 200 199 197 191 181 166 136 349 338 333 327 321 315 312 312 302 290 287 293 301 310 316 320 322 322 320 316 317 322 331 319 301 293 291 291 296 303 310 314 316 316 315 313 310 307 305 306 306 307 307 308 308 308 306 302 298 294 292 291 290 288 286 283 281 278 276 274 274 273 272 272 271 269 268 267 266 265
180 201 216 222 220 206 194 194 198 202 203 207 209 207 203 220 264 310 330 335 333 324 314 312 307 297 290 291 292 293 298 304 311 314 313 310 313 320 333 326 308 296 291 292 298 306 312 314 316 316 315 314 311 309 307 306 305 305 307 309 310 309 307 305 303 302 300 297 293 290 287 285 282 279 276 273 271 271 270 270 269 268 267 266 265 264
131 168 207 218 215 209 198 195 204 214 220 228 234 236 237 245 256 270 285 296 305 307 306 309 306 300 293 289 284 282 286 293 300 304 303 301 305 316 330 329 315 302 297 298 304 311 313 314 313 313 313 312 309 306 303 301 301 305 310 314 314 311 307 305 306 308 306 302 298 295 292 289 285 282 279 277 274 273 271 269 268 267 266 265 264 263
88 75 166 205 208 203 192 198 216 229 237 245 245 242 240 246 256 267 278 287 296 301 302 300 295 290 288 287 288 291 295 293 291 291 290 290 296 307 326 325 313 303 300 302 307 311 311 309 308 310 312 310 306 301 298 296 299 307 315 320 318 312 306 306 306 306 303 300 298 296 293 290 288 284 282 279 277 275 272 270 268 267 266 265 264 263
150 133 152 176 186 188 185 187 206 229 241 247 246 244 247 252 260 271 282 290 295 297 297 295 294 295 296 300 309 317 317 303 287 278 274 274 286 301 317 317 308 300 300 303 306 307 304 303 306 310 313 311 306 299 294 293 300 312 321 324 322 316 309 307 304 301 298 296 295 294 291 289 287 284 279 277 275 273 271 270 268 266 265 264 263 263
179 174 173 179 183 184 184 188 200 219 236 248 255 261 267 272 276 280 284 288 293 297 300 304 307 309 312 317 321 323 322 307 282 265 255 263 281 295 306 309 306 301 300 303 304 302 301 303 308 313 314 311 304 297 291 294 305 317 326 330 328 323 314 304 298 296 295 295 294 293 291 290 288 286 284 281 277 274 272 270 268 267 265 263 262 260
198 200 199 198 196 196 200 209 222 237 252 262 269 276 285 292 293 290 290 292 296 301 305 306 304 304 308 313 317 319 320 310 287 262 247 262 283 291 299 307 307 303 303 305 304 302 304 308 313 317 314 306 298 293 292 301 312 323 329 332 333 329 320 308 299 294 293 292 291 290 288 286 285 284 283 281 279 276 274 271 268 267 266 263 262 260
217 222 226 226 223 221 225 234 246 258 268 275 280 285 291 294 289 284 282 286 293 300 301 297 295 298 304 308 312 317 321 317 302 279 261 269 282 290 297 308 311 307 305 305 304 304 308 313 320 324 318 302 289 289 294 305 316 324 326 326 326 323 318 313 306 300 297 294 292 289 287 284 282 281 280 279 277 276 274 272 270 269 268 267 265 264
229 234 241 247 249 250 250 253 257 263 267 273 278 282 283 283 283 282 282 286 291 296 297 298 301 304 305 304 305 310 315 313 304 290 277 272 273 284 297 312 315 312 308 306 305 307 311 317 326 337 344 326 286 282 290 303 313 317 317 315 314 312 310 306 303 301 299 296 294 293 290 287 283 280 278 277 275 274 272 271 270 270 270 269 267 265
244 245 250 255 259 260 260 259 260 260 261 263 263 264 267 272 276 276 277 283 287 287 288 293 298 301 300 298 298 300 303 302 296 286 277 268 265 278 298 313 318 315 311 310 310 311 318 326 336 349 352 329 288 282 290 302 310 313 312 309 306 304 303 302 300 299 298 297 296 296 295 294 290 284 279 276 275 274 272 271 270 270 269 268 267 265
296 286 281 277 275 272 270 269 269 268 266 262 260 260 263 266 269 272 275 280 280 275 274 280 284 287 289 293 297 298 297 295 288 276 267 263 265 280 297 309 313 313 315 319 318 318 329 347 9 15 348 298 284 288 298 306 312 314 311 308 305 303 302 302 302 301 300 299 298 299 298 298 296 292 285 279 275 273 272 271 270 269 268 267 266 265
297 305 308 304 298 293 291 290 290 288 282 274 266 263 262 264 267 271 275 275 271 266 265 269 272 276 282 291 298 299 294 291 281 266 262 262 268 282 295 301 303 308 319 328 331 330 334 7 84 119 177 263 286 297 305 309 311 311 310 307 304 303 302 302 302 302 301 301 300 300 299 298 297 295 292 286 280 275 272 271 270 269 267 266 266 266
253 269 282 286 286 286 287 288 290 290 287 281 275 270 267 266 268 270 271 270 266 261 259 261 264 267 270 277 286 294 290 310 304 287 284 277 274 282 292 293 295 303 315 331 338 331 321 322 144 160 247 287 298 303 306 309 310 310 309 308 306 305 303 301 301 301 303 304 304 302 301 299 297 295 293 290 286 281 275 271 269 267 265 265 265 264
262 264 265 266 268 269 271 274 277 279 280 279 279 278 277 276 275 274 272 269 264 260 257 257 258 259 259 256 250 247 264 286 300 301 297 290 283 283 288 286 288 296 306 317 315 296 273 292 290 289 295 301 304 307 309 311 313 313 313 312 310 307 304 301 301 303 307 309 310 308 304 301 298 295 293 291 288 286 281 275 271 267 265 264 264 263
271 268 266 265 265 266 267 269 271 273 275 277 279 281 283 283 282 279 275 271 265 260 255 254 254 255 254 253 252 253 258 270 285 293 291 287 281 279 280 280 284 292 300 301 293 278 268 276 288 297 301 304 307 309 312 315 319 320 320 316 312 307 303 302 303 306 309 312 313 312 308 304 300 297 294 292 290 288 285 281 275 270 267 266 265 266
271 270 270 270 271 271 272 272 272 273 274 276 278 280 282 283 282 280 277 273 268 262 257 254 253 252 252 252 253 255 256 262 272 280 278 277 275 273 274 276 281 288 294 292 286 280 277 279 288 297 303 306 307 309 314 319 325 326 320 312 306 302 300 301 303 306 308 309 310 309 309 307 306 303 300 296 293 290 287 285 280 275 271 268 268 269
272 273 274 274 275 276 276 275 274 273 273 273 275 277 279 280 279 278 277 275 272 268 264 260 257 253 251 250 251 253 252 250 254 265 269 274 275 274 275 273 275 280 285 286 287 287 286 287 292 299 304 307 308 309 313 320 322 317 309 301 296 296 298 301 304 306 308 309 309 309 310 311 310 308 305 301 297 293 290 287 284 279 274 271 270 270
272 273 274 275 276 277 277 277 274 272 270 270 271 273 275 276 276 275 276 276 276 274 271 267 263 258 253 250 249 250 250 246 248 256 266 273 276 278 279 274 272 275 279 283 286 289 291 293 296 298 301 303 304 306 311 314 313 307 300 297 296 297 300 304 307 310 311 311 312 314 315 315 313 310 306 302 298 294 290 287 284 281 277 273 270 269
274 275 277 278 278 279 279 278 275 271 268 267 268 269 270 270 270 272 273 274 275 274 273 270 268 264 258 253 251 250 250 248 248 252 259 265 271 276 279 276 275 275 276 279 283 287 291 294 296 297 296 293 295 300 306 309 308 306 304 306 307 308 310 313 315 315 314 313 313 314 313 311 308 304 301 299 297 294 291 289 286 283 279 275 272 269
277 279 282 283 283 282 281 279 275 271 268 266 265 265 264 263 264 265 267 268 269 268 268 268 268 267 265 261 257 255 255 253 251 252 255 259 265 270 275 276 276 276 275 274 277 281 285 288 291 293 291 289 288 292 299 303 305 306 308 312 315 317 319 322 321 317 313 310 309 309 308 305 302 300 298 296 296 296 297 297 297 295 291 285 279 273
278 281 284 286 286 284 281 278 274 270 266 263 262 261 261 261 263 264 266 266 266 265 264 265 266 268 269 269 267 264 262 260 258 257 257 259 262 266 271 274 275 276 275 274 273 273 274 275 276 279 284 288 291 293 296 299 301 305 309 313 316 319 322 324 321 316 313 311 310 310 310 311 308 306 303 303 302 301 301 302 304 304 302 298 293 287
277 278 280 281 281 280 277 274 270 265 262 261 261 263 265 267 269 271 272 272 269 266 264 264 265 268 271 273 273 272 271 270 269 267 265 265 265 266 268 271 273 275 276 274 271 267 264 264 266 268 273 280 286 291 294 295 297 301 307 310 310 312 318 320 321 320 320 319 318 318 318 318 317 313 310 308 305 303 302 302 303 303 302 300 297 293
274 272 272 272 271 271 268 266 263 261 260 262 265 268 271 275 277 279 279 277 273 267 263 262 264 267 270 273 275 276 277 278 278 277 276 275 273 271 270 270 271 274 274 272 268 262 258 258 260 264 267 272 278 284 286 288 291 295 299 299 299 303 310 315 320 324 326 324 321 319 316 313 310 308 305 302 300 298 298 298 298 298 297 296 293 291
271 268 267 265 264 262 260 258 258 260 262 266 270 273 277 280 282 282 282 279 275 269 264 262 264 266 268 270 271 273 274 275 277 278 279 278 277 275 273 272 271 271 271 268 264 258 254 254 256 259 263 268 275 279 282 284 286 288 289 289 294 301 307 311 318 323 320 318 315 312 309 306 304 302 301 298 296 294 293 292 291 291 291 290 288 287
274 272 268 263 258 256 256 257 259 263 267 271 274 277 279 281 281 280 278 275 272 268 263 260 261 265 268 270 271 271 271 271 272 274 275 275 274 273 272 272 272 271 268 264 259 256 254 253 254 257 261 265 270 274 279 283 285 284 283 284 290 295 297 301 309 315 314 312 311 311 309 308 307 305 303 300 297 294 292 290 288 286 285 285 284 284
279 276 270 262 258 257 259 261 264 268 271 274 276 277 278 277 276 273 271 269 266 264 260 259 262 266 271 275 278 279 280 279 277 275 273 272 272 271 271 270 271 270 267 262 256 253 254 255 256 258 260 264 267 270 274 278 281 282 281 282 282 281 280 289 298 305 307 309 310 311 312 311 310 308 306 302 299 296 294 291 289 286 284 283 282 281
279 275 269 263 261 261 264 267 271 275 276 277 277 276 275 273 269 267 266 265 263 261 259 260 264 270 274 276 279 283 286 288 289 285 277 272 271 271 272 271 271 270 268 265 261 257 254 254 257 261 263 264 265 267 269 273 277 279 280 281 280 278 280 286 292 296 299 303 306 308 310 310 309 306 303 301 299 298 296 293 291 288 285 282 280 279
275 272 268 265 264 265 269 274 278 280 278 276 275 273 272 268 264 263 262 263 262 260 259 261 264 267 269 273 277 281 282 284 285 284 280 273 269 269 272 273 272 270 267 267 268 266 261 259 259 263 266 267 266 265 265 267 271 275 277 279 280 280 282 284 287 290 294 298 301 304 307 306 304 301 299 298 298 298 296 294 291 289 286 284 280 277
271 268 266 265 266 268 273 277 279 278 275 273 272 272 270 265 262 261 260 260 260 260 260 261 262 262 263 267 271 274 276 279 280 281 279 274 268 267 269 272 271 270 269 269 269 269 266 267 265 263 262 264 266 267 267 266 267 269 273 277 279 280 280 282 286 290 293 294 296 299 302 301 299 297 297 297 298 297 296 294 292 290 288 285 282 279
269 266 265 264 265 267 270 273 273 271 270 269 270 270 268 263 260 260 261 260 259 259 258 259 259 259 261 263 264 266 268 271 273 275 276 273 268 264 265 268 269 270 272 273 274 273 273 271 268 264 260 258 261 265 269 269 268 268 271 274 277 278 279 282 287 291 293 292 293 294 294 294 293 294 296 297 297 296 296 294 293 292 290 288 286 283
265 263 261 261 262 263 266 268 268 267 265 265 265 266 265 261 258 257 259 260 259 258 256 255 256 258 261 262 263 263 264 266 268 269 268 267 263 260 258 260 263 267 269 271 272 274 275 274 270 265 261 256 256 260 266 268 269 269 271 272 273 274 276 281 286 290 291 291 290 290 289 289 289 291 293 293 293 294 294 294 293 292 290 289 288 287
259 258 257 258 259 261 264 265 265 264 263 263 263 263 263 261 257 254 255 256 258 257 255 254 254 256 259 262 263 263 263 263 265 266 265 262 259 257 255 254 255 258 261 263 265 268 270 271 270 266 262 258 255 256 259 264 268 271 271 271 271 272 274 278 283 288 290 290 289 287 287 286 287 287 287 286 288 290 292 293 293 292 291 290 289 288
255 254 254 255 258 260 263 264 264 263 262 262 262 262 261 260 258 255 253 254 255 256 256 255 254 255 256 260 262 262 261 261 262 262 263 261 258 256 254 251 251 252 256 259 263 267 270 274 275 274 270 264 258 255 256 260 264 267 268 269 271 272 273 276 281 286 289 289 287 285 284 283 284 283 282 281 284 288 290 291 291 291 291 291 289 288